COSMOS 2355

Satellite information

Favourite Embed

Satellite Type and Status

PAYLOADIN ORBIT

Key statistics

Satellite COSMOS 2355 at a glance.

Uptime

9948

Days in orbit

Revolutions

≈ 12.2

Per day

Orbit

LEO

Low Earth Orbit

Inclination

82.6

Latest

Satellite identification and parameters

Extended collection of information and parameters for COSMOS 2355.

Object identification

Identified? True

Debris? False

Object name: COSMOS 2355

International designator: 1998-036D

Object number (NORAD): 25366

Object ID (CCSDS): 25366

Country: COMMONWEALTH OF INDEPENDENT STATES (CIS)

Current information (Y/N): Y

RCS size: MEDIUM

Orbital parameters

Period: 117.858 minutes

Inclination: 82.5912 deg

SMA: 7962.787 km

Apoapsis: 1866.842 km

Periapsis: 1302.461 km

RAAN: 147.7093 deg

Eccentricy: 0.03543871

Argument of periapsis: 68.4782 deg

Mean anomaly: 101.3783 deg

Mean motion: 12.21814139 rev/day

Mean motion (dot): 0.00000068 rev/day2

B* drag term: 0.00043333376 1/REarth

Two-line elements (TLE)

Creation date: Sept. 8, 2025, 6:18 p.m.

Reference frame: TEME

Reference center: EARTH

Epoch: Sept. 8, 2025, 12:17 p.m. UTC

TLE line 0: 0 COSMOS 2355

TLE line 1: 1 25366U 98036D 25251.51238499 .00000068 00000-0 43333-3 0 9997

TLE line 2: 2 25366 82.5912 147.7093 0354387 68.4782 101.3783 12.21814139214627

Live tracking on map

Real-time ground track for satellite COSMOS 2355.

In-orbit conjunctions

There are no conjunctions computed for COSMOS 2355, at the moment. Check back to stay up to date, as we update our databases every day.

Go to all conjunctions

Associated space launch

Second generation store-dump military communications satellites

COSMOS 2355 was lifted into orbit during the mission ‘Tsiklon-3 | Strela-3 119 to 124’, on board a Tsiklon-3 space rocket.

The launch took place on June 15, 1998, 10:58 p.m. from 32/1.

For more information about the launch, click the button.

Launch to space Tsiklon-3 | Strela-3 119 to 124
Tsiklon-3 | Strela-3 119 to 124

Agency: N/A

Status: Launch Successful

Launch date: June 15, 1998, 10:58 p.m. UTC

Rocket: Tsiklon-3

Launch pad: 32/1

Location: Plesetsk Cosmodrome, Russian Federation

...

Latest news about this satellite

There are no fresh news available about this satellite. Check back as we update our databases every day.


Newsletter sign-up

Weekly statistics, charts and insights to help you stay on top of the space industry.